sat.trackr.live / text

‹ back to catalog

KOREASAT 5A

NORAD 42984 · 2017-067A

PAYLOAD ACTIVE UNKNOWN

§ Identity

Operator
Country
SKOR
Launch date
2017-10-30
Launch site
AFETR
Launch vehicle
Mass (kg)
RCS (m²)

Purposes: comms

External: N2YO · Heavens-Above · Gunter

§ Orbital elements

Epoch: 2026-09-04T01:09:11.628000Z

Period
1,436.14 min
Inclination
0.0170°
Eccentricity
0.0001114
Mean motion
1.00268536 rev/d
Perigee alt
35,782.8 km
Apogee alt
35,792.2 km
Semi-major
42,165.6 km
B*
0.0000e+0
RAAN
120.5074°
Arg perigee
80.6164°
Mean anomaly
272.5054°
Rev number
3,232

§ Raw data

KOREASAT 5A1 42984U 17067A   26247.04805125  .00000000  00000+0  00000+0 0  99922 42984   0.0170 120.5074 0001114  80.6164 272.5054  1.00268536 32324

JSON: /api/v1/satellites/42984 · /tle

For live sub-satellite position, see the globe view (requires WebGL).

§ Visibility from observer

Set your observer location to see the next 7 days of passes ≥ 10°. The values pass through the URL so the page stays shareable.

No JS? Fill the form by hand. The geolocation button needs JavaScript.